| time (UTC) | temp F | wind direction | speed MPH | gust MPH | rain 1hr in | rain 24hr in | rain mn in | humidity % | barometer mb |
| 20260510194542 | 77 | 151 | 3.0 | 6.0 | 0.00 | 0.03 | 0.00 | 82 | 1016.1 |
| 20260510193519 | 78 | 160 | 2.0 | 6.0 | 0.00 | 0.03 | 0.00 | 80 | 1016.1 |
| 20260510192519 | 78 | 161 | 2.0 | 5.0 | 0.00 | 0.03 | 0.00 | 80 | 1016.2 |
| 20260510191519 | 78 | 139 | 2.0 | 7.0 | 0.00 | 0.03 | 0.00 | 79 | 1016.4 |
| 20260510190519 | 78 | 187 | 2.0 | 5.0 | 0.00 | 0.03 | 0.00 | 81 | 1016.5 |
| 20260510185519 | 78 | 174 | 2.0 | 6.0 | 0.00 | 0.03 | 0.00 | 81 | 1016.5 |
| 20260510184521 | 78 | 174 | 3.0 | 6.0 | 0.00 | 0.03 | 0.00 | 81 | 1016.7 |
| 20260510183518 | 78 | 138 | 3.0 | 6.0 | 0.00 | 0.03 | 0.00 | 81 | 1016.7 |
| 20260510182520 | 77 | 163 | 2.0 | 4.0 | 0.00 | 0.03 | 0.00 | 81 | 1016.9 |
| 20260510181520 | 77 | 108 | 3.0 | 5.0 | 0.00 | 0.03 | 0.00 | 80 | 1017.0 |
| 20260510180520 | 77 | 148 | 2.0 | 4.0 | 0.00 | 0.03 | 0.00 | 82 | 1017.0 |
| 20260510175520 | 77 | 166 | 2.0 | 5.0 | 0.00 | 0.03 | 0.00 | 82 | 1017.1 |
| 20260510174520 | 78 | 188 | 2.0 | 4.0 | 0.00 | 0.04 | 0.00 | 81 | 1017.1 |
| 20260510173520 | 78 | 171 | 2.0 | 4.0 | 0.00 | 0.04 | 0.00 | 81 | 1016.9 |
| 20260510172540 | 78 | 195 | 2.0 | 6.0 | 0.00 | 0.04 | 0.00 | 82 | 1017.0 |
| 20260510171518 | 78 | 146 | 2.0 | 8.0 | 0.00 | 0.04 | 0.00 | 82 | 1017.0 |
| 20260510170518 | 78 | 87 | 2.0 | 6.0 | 0.00 | 0.04 | 0.00 | 82 | 1017.1 |
| 20260510165518 | 78 | 135 | 2.0 | 5.0 | 0.00 | 0.04 | 0.00 | 82 | 1017.1 |
| 20260510164518 | 78 | 142 | 2.0 | 6.0 | 0.00 | 0.08 | 0.00 | 83 | 1017.1 |
| 20260510163519 | 78 | 112 | 2.0 | 4.0 | 0.00 | 0.10 | 0.00 | 81 | 1017.1 |
| 20260510162518 | 78 | 112 | 2.0 | 4.0 | 0.00 | 0.18 | 0.00 | 79 | 1017.0 |
| 20260510161519 | 78 | 126 | 3.0 | 5.0 | 0.00 | 0.21 | 0.00 | 79 | 1017.0 |
| 20260510160521 | 78 | 131 | 2.0 | 3.0 | 0.00 | 0.28 | 0.00 | 80 | 1017.0 |
| 20260510155507 | 78 | 115 | 2.0 | 3.0 | 0.00 | 0.45 | 0.00 | 81 | 1017.0 |
| 20260510155022 | 77 | 62 | 2.0 | 4.0 | 0.00 | 0.48 | 0.00 | 82 | 1017.0 |
| 20260510154019 | 77 | 134 | 2.0 | 5.0 | 0.00 | 0.52 | 0.00 | 82 | 1017.0 |
| 20260510153022 | 77 | 58 | 2.0 | 3.0 | 0.00 | 0.74 | 0.00 | 81 | 1017.1 |
| 20260510152022 | 77 | 33 | 2.0 | 5.0 | 0.00 | 0.76 | 0.00 | 81 | 1017.1 |
| 20260510151022 | 77 | 46 | 2.0 | 4.0 | 0.00 | 0.76 | 0.00 | 82 | 1017.0 |
| 20260510150024 | 77 | 72 | 2.0 | 4.0 | 0.00 | 0.76 | 0.00 | 83 | 1017.0 |
| 20260510145020 | 77 | 93 | 2.0 | 4.0 | 0.00 | 0.76 | 0.00 | 84 | 1017.0 |
| 20260510144020 | 77 | 112 | 1.0 | 3.0 | 0.00 | 0.76 | 0.00 | 84 | 1017.2 |
| 20260510143017 | 77 | 26 | 2.0 | 4.0 | 0.00 | 0.76 | 0.00 | 84 | 1017.3 |
| 20260510142017 | 75 | 20 | 1.0 | 3.0 | 0.00 | 0.76 | 0.00 | 88 | 1017.2 |
| 20260510141021 | 73 | 352 | 1.0 | 5.0 | 0.00 | 0.76 | 0.00 | 91 | 1017.2 |
| 20260510140018 | 72 | 24 | 1.0 | 4.0 | 0.00 | 0.76 | 0.00 | 92 | 1017.1 |
| 20260510135018 | 71 | 29 | 1.0 | 5.0 | 0.00 | 0.76 | 0.00 | 95 | 1017.1 |
| 20260510134019 | 70 | 34 | 2.0 | 4.0 | 0.00 | 0.76 | 0.00 | 98 | 1017.0 |
| 20260510133027 | 70 | 26 | 2.0 | 3.0 | 0.00 | 0.76 | 0.00 | 99 | 1016.9 |
| 20260510132027 | 69 | 359 | 2.0 | 3.0 | 0.00 | 0.76 | 0.00 | 99 | 1017.0 |
| 20260510131027 | 69 | 9 | 2.0 | 4.0 | 0.00 | 0.76 | 0.00 | 99 | 1016.8 |
| 20260510130027 | 69 | 16 | 2.0 | 4.0 | 0.00 | 0.76 | 0.00 | 99 | 1016.6 |
| 20260510125025 | 69 | 18 | 2.0 | 4.0 | 0.00 | 0.76 | 0.00 | 99 | 1016.5 |
| 20260510124025 | 68 | 359 | 2.0 | 3.0 | 0.00 | 0.76 | 0.00 | 99 | 1016.3 |
| 20260510123025 | 69 | 11 | 2.0 | 3.0 | 0.00 | 0.76 | 0.00 | 99 | 1016.2 |
| 20260510122045 | 68 | 12 | 0.0 | 1.0 | 0.00 | 0.76 | 0.00 | 99 | 1016.1 |
| 20260510121025 | 68 | 2 | 1.0 | 2.0 | 0.00 | 0.76 | 0.00 | 99 | 1015.9 |
| 20260510120026 | 67 | 7 | 1.0 | 2.0 | 0.00 | 0.76 | 0.00 | 99 | 1015.8 |
| 20260510115045 | 67 | 4 | 1.0 | 2.0 | 0.00 | 0.76 | 0.00 | 99 | 1015.7 |
| 20260510114026 | 67 | 5 | 1.0 | 2.0 | 0.00 | 0.76 | 0.00 | 99 | 1015.5 |
| 20260510113026 | 66 | 356 | 1.0 | 2.0 | 0.00 | 0.76 | 0.00 | 99 | 1015.4 |
| 20260510112026 | 66 | 296 | 0.0 | 1.0 | 0.00 | 0.76 | 0.00 | 99 | 1015.3 |
| 20260510111028 | 66 | 333 | 0.0 | 0.0 | 0.00 | 0.76 | 0.00 | 99 | 1015.1 |
| 20260510110026 | 66 | 357 | 0.0 | 2.0 | 0.00 | 0.76 | 0.00 | 99 | 1015.0 |
| 20260510105026 | 66 | 269 | 0.0 | 1.0 | 0.00 | 0.76 | 0.00 | 99 | 1014.8 |
| 20260510104026 | 66 | 301 | 0.0 | 1.0 | 0.00 | 0.76 | 0.00 | 99 | 1014.7 |
| 20260510103027 | 66 | 0.0 | 0.0 | 0.00 | 0.76 | 0.00 | 99 | 1014.6 | |
| 20260510102047 | 66 | 0.0 | 0.0 | 0.00 | 0.76 | 0.00 | 99 | 1014.5 | |
| 20260510101027 | 66 | 0.0 | 0.0 | 0.00 | 0.76 | 0.00 | 99 | 1014.5 | |
| 20260510100027 | 67 | 0.0 | 0.0 | 0.00 | 0.76 | 0.00 | 99 | 1014.5 | |
| 20260510095027 | 67 | 270 | 0.0 | 0.0 | 0.00 | 0.76 | 0.00 | 99 | 1014.5 |
| 20260510094027 | 67 | 0.0 | 0.0 | 0.00 | 0.76 | 0.00 | 99 | 1014.4 | |
| 20260510093027 | 67 | 265 | 0.0 | 1.0 | 0.00 | 0.76 | 0.00 | 99 | 1014.1 |
| 20260510092028 | 67 | 271 | 0.0 | 0.0 | 0.00 | 0.76 | 0.00 | 99 | 1014.1 |
| 20260510091028 | 68 | 306 | 0.0 | 1.0 | 0.00 | 0.76 | 0.00 | 99 | 1013.9 |
| 20260510090028 | 68 | 292 | 0.0 | 1.0 | 0.00 | 0.76 | 0.00 | 99 | 1013.8 |
| 20260510085028 | 68 | 317 | 0.0 | 1.0 | 0.00 | 0.76 | 0.00 | 99 | 1013.6 |
| 20260510084028 | 68 | 336 | 1.0 | 2.0 | 0.00 | 0.76 | 0.00 | 99 | 1013.5 |
| 20260510083029 | 68 | 238 | 0.0 | 2.0 | 0.00 | 0.77 | 0.00 | 99 | 1013.2 |
| 20260510082029 | 68 | 271 | 0.0 | 1.0 | 0.00 | 0.78 | 0.00 | 99 | 1013.1 |
| 20260510081029 | 68 | 104 | 0.0 | 2.0 | 0.00 | 0.78 | 0.00 | 99 | 1013.0 |
| 20260510080029 | 68 | 350 | 1.0 | 2.0 | 0.00 | 0.78 | 0.00 | 99 | 1013.0 |
| 20260510075030 | 68 | 351 | 2.0 | 3.0 | 0.00 | 0.80 | 0.00 | 98 | 1012.9 |
| 20260510074030 | 68 | 355 | 0.0 | 2.0 | 0.00 | 0.82 | 0.00 | 98 | 1013.1 |
| 20260510073030 | 68 | 350 | 1.0 | 2.0 | 0.00 | 0.82 | 0.00 | 98 | 1013.1 |
| 20260510072030 | 68 | 338 | 1.0 | 2.0 | 0.00 | 0.82 | 0.00 | 98 | 1013.2 |
| 20260510071050 | 68 | 348 | 0.0 | 1.0 | 0.00 | 0.83 | 0.00 | 98 | 1013.3 |
| 20260510070030 | 69 | 340 | 0.0 | 2.0 | 0.00 | 0.83 | 0.00 | 98 | 1013.2 |
| 20260510065031 | 69 | 333 | 0.0 | 2.0 | 0.00 | 0.83 | 0.00 | 98 | 1013.3 |
| 20260510064032 | 69 | 338 | 1.0 | 2.0 | 0.00 | 0.89 | 0.00 | 98 | 1013.3 |
| 20260510063031 | 69 | 338 | 1.0 | 3.0 | 0.00 | 0.89 | 0.00 | 98 | 1013.4 |
| 20260510062031 | 69 | 360 | 1.0 | 2.0 | 0.00 | 0.89 | 0.00 | 98 | 1013.4 |
| 20260510061031 | 69 | 330 | 0.0 | 2.0 | 0.00 | 0.89 | 0.00 | 98 | 1013.6 |
| 20260510060031 | 69 | 0.0 | 0.0 | 0.00 | 0.89 | 0.00 | 98 | 1013.7 | |
| 20260510055031 | 69 | 334 | 0.0 | 1.0 | 0.00 | 0.89 | 0.00 | 98 | 1014.0 |
| 20260510054032 | 69 | 108 | 0.0 | 1.0 | 0.00 | 0.89 | 0.00 | 98 | 1014.1 |
| 20260510053018 | 69 | 0.0 | 0.0 | 0.00 | 0.89 | 0.00 | 98 | 1013.7 | |
| 20260510052017 | 69 | 0.0 | 0.0 | 0.00 | 0.89 | 0.00 | 98 | 1013.5 | |
| 20260510051017 | 69 | 56 | 0.0 | 1.0 | 0.00 | 0.89 | 0.00 | 98 | 1013.2 |
| 20260510050017 | 69 | 75 | 0.0 | 1.0 | 0.00 | 0.89 | 0.00 | 97 | 1013.4 |
| 20260510045017 | 69 | 0.0 | 0.0 | 0.00 | 0.89 | 0.89 | 97 | 1013.8 | |
| 20260510044033 | 69 | 20 | 0.0 | 2.0 | 0.00 | 0.89 | 0.89 | 97 | 1014.0 |
| 20260510043033 | 69 | 0.0 | 0.0 | 0.00 | 0.89 | 0.89 | 97 | 1014.2 | |
| 20260510042018 | 69 | 0.0 | 0.0 | 0.00 | 0.89 | 0.89 | 97 | 1014.2 | |
| 20260510041018 | 69 | 353 | 1.0 | 2.0 | 0.00 | 0.89 | 0.89 | 97 | 1014.2 |
| 20260510040019 | 69 | 321 | 0.0 | 0.0 | 0.00 | 0.88 | 0.88 | 97 | 1014.5 |
| 20260510035018 | 70 | 0.0 | 0.0 | 0.00 | 0.88 | 0.88 | 96 | 1014.5 | |
| 20260510034019 | 70 | 0.0 | 0.0 | 0.00 | 0.88 | 0.88 | 96 | 1014.3 | |
| 20260510033019 | 70 | 0.0 | 0.0 | 0.00 | 0.88 | 0.88 | 96 | 1014.3 | |
| 20260510032059 | 70 | 0.0 | 0.0 | 0.00 | 0.88 | 0.88 | 96 | 1014.3 | |
| 20260510031019 | 70 | 331 | 0.0 | 1.0 | 0.00 | 0.88 | 0.88 | 96 | 1014.1 |
| 20260510030019 | 70 | 0.0 | 0.0 | 0.00 | 0.89 | 0.88 | 96 | 1014.0 | |
| 20260510025040 | 71 | 346 | 0.0 | 2.0 | 0.00 | 0.89 | 0.88 | 96 | 1013.7 |
| 20260510024100 | 71 | 356 | 0.0 | 1.0 | 0.01 | 0.89 | 0.88 | 95 | 1013.5 |
| 20260510023020 | 71 | 18 | 0.0 | 3.0 | 0.01 | 0.90 | 0.88 | 95 | 1013.4 |
| 20260510022020 | 71 | 38 | 0.0 | 2.0 | 0.01 | 0.91 | 0.88 | 95 | 1013.5 |
| 20260510021020 | 71 | 56 | 0.0 | 2.0 | 0.01 | 0.92 | 0.88 | 95 | 1013.5 |
| 20260510020021 | 71 | 35 | 0.0 | 1.0 | 0.01 | 0.93 | 0.88 | 94 | 1013.8 |
| 20260510015020 | 71 | 178 | 0.0 | 2.0 | 0.01 | 0.94 | 0.88 | 94 | 1014.0 |
| 20260510014021 | 71 | 187 | 1.0 | 2.0 | 0.00 | 0.93 | 0.88 | 94 | 1014.0 |
| 20260510013021 | 71 | 170 | 1.0 | 2.0 | 0.00 | 0.93 | 0.88 | 93 | 1013.9 |
| 20260510012021 | 71 | 189 | 1.0 | 2.0 | 0.00 | 0.93 | 0.88 | 93 | 1014.2 |
| 20260510011021 | 71 | 234 | 0.0 | 1.0 | 0.00 | 0.93 | 0.88 | 93 | 1014.1 |
| 20260510010022 | 71 | 149 | 2.0 | 4.0 | 0.00 | 0.93 | 0.88 | 93 | 1013.5 |
| 20260510005022 | 70 | 155 | 2.0 | 6.0 | 0.00 | 0.93 | 0.88 | 94 | 1013.2 |
| 20260510004042 | 70 | 142 | 2.0 | 5.0 | 0.00 | 0.93 | 0.88 | 95 | 1013.2 |
| 20260510003022 | 70 | 107 | 2.0 | 4.0 | 0.00 | 0.95 | 0.87 | 96 | 1012.9 |
| 20260510002042 | 70 | 155 | 1.0 | 3.0 | 0.00 | 0.97 | 0.87 | 96 | 1012.9 |
| 20260510001022 | 70 | 241 | 0.0 | 1.0 | 0.01 | 0.99 | 0.87 | 96 | 1012.9 |
| 20260510000043 | 70 | 74 | 1.0 | 2.0 | 0.01 | 1.01 | 0.87 | 96 | 1012.9 |
| 20260509235022 | 70 | 54 | 0.0 | 1.0 | 0.01 | 1.02 | 0.87 | 95 | 1013.1 |
| 20260509234043 | 70 | 0.0 | 0.0 | 0.01 | 1.02 | 0.87 | 95 | 1013.2 | |
| 20260509233023 | 71 | 223 | 0.0 | 1.0 | 0.01 | 1.03 | 0.87 | 95 | 1013.2 |
| 20260509232023 | 71 | 0.0 | 0.0 | 0.01 | 1.03 | 0.87 | 95 | 1013.0 | |
| 20260509231024 | 71 | 348 | 1.0 | 2.0 | 0.01 | 1.03 | 0.87 | 94 | 1013.2 |
| 20260509230023 | 71 | 0.0 | 0.0 | 0.00 | 1.02 | 0.86 | 94 | 1013.1 | |
| 20260509225103 | 71 | 0.0 | 0.0 | 0.00 | 1.02 | 0.86 | 93 | 1013.1 | |
| 20260509224024 | 71 | 344 | 1.0 | 2.0 | 0.00 | 1.02 | 0.86 | 93 | 1012.8 |
| 20260509223024 | 71 | 9 | 0.0 | 1.0 | 0.00 | 1.02 | 0.86 | 92 | 1012.9 |
| 20260509222044 | 71 | 357 | 1.0 | 2.0 | 0.00 | 1.02 | 0.86 | 92 | 1012.9 |
| 20260509221024 | 72 | 348 | 0.0 | 1.0 | 0.00 | 1.02 | 0.86 | 92 | 1013.0 |
| 20260509220024 | 72 | 350 | 0.0 | 1.0 | 0.00 | 1.02 | 0.86 | 91 | 1012.9 |
| 20260509215125 | 72 | 171 | 0.0 | 1.0 | 0.00 | 1.02 | 0.86 | 91 | 1012.8 |
| 20260509214025 | 72 | 291 | 0.0 | 1.0 | 0.00 | 1.02 | 0.86 | 90 | 1013.0 |
| 20260509213025 | 72 | 326 | 0.0 | 1.0 | 0.00 | 1.02 | 0.86 | 89 | 1013.0 |
| 20260509212025 | 72 | 155 | 1.0 | 2.0 | 0.00 | 1.02 | 0.86 | 90 | 1012.6 |
| 20260509211025 | 72 | 360 | 1.0 | 3.0 | 0.00 | 1.02 | 0.86 | 90 | 1012.6 |
| 20260509210026 | 72 | 19 | 1.0 | 3.0 | 0.00 | 1.02 | 0.86 | 90 | 1012.6 |
| 20260509205025 | 71 | 206 | 1.0 | 2.0 | 0.00 | 1.02 | 0.86 | 90 | 1012.2 |
| 20260509204020 | 71 | 159 | 2.0 | 4.0 | 0.00 | 1.02 | 0.86 | 91 | 1011.7 |
| 20260509203020 | 71 | 160 | 3.0 | 8.0 | 0.00 | 1.02 | 0.86 | 91 | 1011.5 |
| 20260509202020 | 71 | 121 | 2.0 | 6.0 | 0.00 | 1.02 | 0.86 | 90 | 1011.0 |
| 20260509201041 | 71 | 135 | 3.0 | 7.0 | 0.00 | 1.02 | 0.86 | 90 | 1011.4 |
| 20260509200018 | 71 | 101 | 3.0 | 8.0 | 0.00 | 1.02 | 0.86 | 89 | 1011.4 |
| 20260509195018 | 72 | 106 | 2.0 | 7.0 | 0.00 | 1.02 | 0.86 | 88 | 1011.7 |